千帆星座-94(QIANFAN-94)

导读

QIANFAN-94是一颗由中国于2025年10月17日发射的卫星。作为中国航天事业的最新成果之一,该卫星的成功发射进一步丰富了中国的卫星星座体系,有望在相关应用领域发挥重要作用,助力中国在空间科学研究、商业航天应用等方面持续推进发展,提升航天领域的综合能力。

Basic Information
目录编号:
66036
目录名称:
QIANFAN-94
国际标识:
2025-233D
轨道中心:
EARTH
卫星名称:
千帆星座-94
卫星全名:
千帆星座-94(QIANFAN-94)
卫星状态:
在轨 (已飞行283 天)
发射日期:
2025-10-17 UTC
国别 :
中国 (CN)
星等 :
--
Orbit Information
数据来源 国际轨道数据 AOE轨道数据
星历时间 2026-07-27T09:22:06+0800
21小时前
查看轨道信息
2026-07-27T18:00:00+0800
13小时前
查看轨道信息
半长轴 7446.658km 7446.656km
偏心率 0.0002116 0.0001962
轨道倾角 88.999° 88.999°
近地点辐角 89.889° 86.875°
升交点赤经 39.084° 39.047°
平近点角 270.250° 221.438°
近地点 1066.945km 1067.057km
远地点 1070.097km 1069.981km
周期 106.586分钟 106.586分钟
每日圈数 13.510165 13.510173
Detailed Information
卫星平台:
94
覆盖范围:
全球
运营商:
上海垣信卫星科技有限公司
运营商所在国:
中国
使用方式:
暂无
Satellite Introduction
千帆星座,也被称为“G60星链”计划,是中国版“星链”的重要组成部分,旨在打造一个由1.4万多颗低轨宽频多媒体卫星构成的庞大星座。千帆星座计划由上海垣信卫星科技有限公司负责实施,于2023年启动建设。该项目是我国第二个低轨卫星大星座,旨在通过构建庞大的卫星网络,为全球用户提供高质量的通信和宽带互联网服务。
2D Orbit Map
3D Orbit Map
Orbit Altitude Analysis Chart
Orbit Inclination Analysis Chart
Orbit Comprehensive Analysis Chart
View Comprehensive Chart